USA 283

Last updated on Oct. 24, 2020, 5:54 a.m. UTC

1 43339U 18036A   20297.64215593 -.00000332  00000-0  00000+0 0  9993
2 43339   0.0201   6.7589 0000528 257.5471 133.4931  1.00270176  4639
UTC
Height (km)
Latitude
Longitude
Inclination
Orbital Period
UTC large
Height (km)
Speed (km/s)
/
Latitude / Longitude
Inclination (degrees)
Orbital Period (minutes)
Azimuth
Elevation
Range (km)
Doppler Factor
iOS Compass Heading
iOS Angle

Next 30 passes for location: Hong Kong

Rise time Rise Azimuth (degrees) Set time Set Azimuth (degrees) Duration Max altitude (degrees)

No matching passes for this satellites